map of POP home
Great Circle Mapper logo
POP - Airport
Location
City:  Puerto Plata, Puerto Plata, Dominican Republic
Name:Gregorio Luperón International Airport
ICAO:MDPP
IATA:POP

Details
Type:Airport (Aerodrome, Airfield)
Use:Public/Civil, Military, International (customs port of entry)
Latitude:19°45'28"N (19.757900)
Longitude:70°34'12"W (-70.570032)
Datum:WGS 1984
Elevation:15 ft (5 m)
Variation:11.14°W (WMM2015 magnetic declination)
-0.07° annual change
Runways:1
Longest:10108 × 151 ft (3081 × 46 m), paved

Time
Time Zone:UTC-4
Local Time:

Weather
METAR:MDPP 250000Z 09010KT 9999 TS FEW018CB SCT018 SCT300 28/26 Q1015 CB/SE/SW/W/NW/N
TAF:MDPP 241600Z 2418/2518 06010KT 9999 SCT020 PROB30 2423/2505 8000 -TSRA FEW014CB BKN016
BECMG 2502/2504 00000KT

Related Locations
Nearby:
Farthest:EXM: 12103 mi / 19479 km
Exmouth Gulf, WA, AU

Find:

   beyond  
but within

Other Information
Maps:
NOTAMs:
Links:
Sources:

  
flag of Dominican Republic   

Sectional Chart

Flight Planning
at skyvector.com

Satellite Image

Google Maps Satellite view

 

Copyright © 2004-2016 Karl L. Swartz. All rights reserved.
The Great Circle Mapper name and logo are trademarks of the Great Circle Mapper.
All other trademarks mentioned herein belong to their respective owners.
Please see credits for attibutions and further copyright information.

  Follow gcmap on Facebook Follow gcmap on Twitter Follow gcmap on Google+ GCmap on LinkedIn

hCard Microformat

Geo Microformat